Location: Gleizolles
(44.4833°N, 6.7667°E)
Time: 02:48:22
(UTC+00:00)

N. Korean satellite - Pass Details

Date: 15 December 2021
Orbit: 447 x 491 km, 97.3° (Epoch: 23 January)

Event Time Altitude Azimuth Distance (km) Brightness Sun altitude
Rises 16:24:07 0° 185° (S) 2,485 10.7 -5.5°
Reaches altitude 10° 16:26:17 10° 195° (SSW) 1,607 9.9 -5.9°
Maximum altitude 16:29:28 35° 262° (W) 763 8.4 -6.4°
Drops below altitude 10° 16:32:38 10° 330° (NNW) 1,599 9.3 -6.9°
Sets 16:34:47 0° 340° (NNW) 2,472 10.1 -7.2°
